Погода Атасу

Хотите узнать прогноз погоды Атасу? Тогда Вам сюда: Погода Атасу

Поиск расширенной информации на нашем сайте:

Полезная информация:

Новости сайта



02.01.2020
Опубликован Долгосрочный прогноз погоды по городам России и ближнего зарубежья на январь 2020 года.
Карты: Прогноз на январь и февраль 2020 года, Сравнение прогнозируемой аномалии приземной температуры воздуха на январь 2020 года по разным моделям.




Погода Атасу - сегодня

Время (UTC), дата Ветер
(°,м/с) 
Видим.   Явления Облачность Т
(°С)
Тd
(°С)
f(%) Тe
(°С)
Pmin
(гПа)
dP
(гПа)
Po
(мм)
O2
(г/м3)
Тmin Tmax R s Состояние
почвы
12 22.10.21 230 (ЮЗ) 12-18{24}  20000 м    9/9 600 м кучево-дожд. 
[Cb cap]
+3.1 -5.2 54 -2  1026.7  -0.5  725  289           
15 22.10.21 200 (Ю) 12-15  н/о  {ливн. осадки}  10/10 600 м кучево-дожд. 
[Cb cap]
+1.8 -1.3 80 -3  1029.3  727  291    +3.7       
18 22.10.21 250 (З) 12  н/о  {ливн. осадки}  10/10 600 м кучево-дожд. 
[Cb cap]
+1.2 -1.1 85 -4  1030.5  1.2  728  292    +3.7  0.0     
21 22.10.21 250 (З) 16-18{20}  н/о  слаб. ливневой снег  10/10 600 м кучево-дожд. 
[Cb cap]
+0.8 -0.3 92 -5  1029  -1.9  726  292           
00 23.10.21 230 (ЮЗ) 12-16{20}  н/о  {ливн. осадки}  10/10 600 м кучево-дожд. 
[Cb cap]
+1.4 -0.3 88 -4  1029.4  0.8  727  291           
03 23.10.21 200 (Ю) 14-17{20}  20000 м  в посл. час ливневой дождь  10/10 600 м кучево-дожд. 
[Cb cap]
+1.6 +0.5 92 -4  1030.5  1.1  728  291           
06 23.10.21 230 (ЮЗ) 10  20000 м  {ливн. осадки}  8/3 1000 м верхняя 
[Cu hum|Ci ing]
+5 +0.4 72 +1  1031.6  729  288  +0.8       
09 23.10.21 210 (ЮЗ) 10{19}  20000 м    9/0 верхняя 
[Cc]
+9 -1.8 47 +6  1028.6  -2.1  728  284           
12 23.10.21 230 (ЮЗ) 12-16{20}  20000 м    4/0 верхняя 
[Ci ing]
+9.3 -1.7 46 +6  1028.5  0.1  728  284    -0.9       
15 23.10.21 180 (Ю) н/о    10/10 1000 м 
[Sc]
+7.2 -2.8 49 +5  1031  1.8  729  286    +9.3       
18 23.10.21 190 (Ю) н/о    10/10 1000 м 
[Sc]
+7.2 -2.5 50 +5  1031.2  0.3  729  287    +9.3       
21 23.10.21 190 (Ю) н/о    10/10 1000 м 
[Sc]
+6.6 -3.3 49 +4  1031.5  0.1  729  287           
00 24.10.21 180 (Ю) н/о    10/10 1000 м 
[Sc]
+5.7 -4.3 49 +3  1031.7  729  288           
03 24.10.21 180 (Ю) 20000 м    10/0 средняя 
[Ac As]
+5.4 -3.6 52 +3  1031.9  0.1  729  289           
06 24.10.21 200 (Ю) 20000 м    10/10 1000 м 
[Sc]
+8.8 -2.2 46 +7  1030.5  -0.5  729  285  +5.4         
09 24.10.21 210 (ЮЗ) 20000 м    ясно 
+13 -0.4 40 +12  1027.5  -2.1  727  280           
12 24.10.21 190 (Ю) 20000 м    ясно 
+11.9 +1.2 48 +12  1026.4  -1.2  727  280           
15 24.10.21 170 (Ю) н/о    ясно 
+4.7 +0 72 +4  1027.7  -0.2  726  288    +13       
18 24.10.21 120 (ЮВ) н/о    ясно 
+1.7 -2.3 75 1027.2  -1.1  726  291    +13       
21 24.10.21 060 (СВ) н/о    ясно 
-0.6 -3 84 -1  1026  -1.7  724  293           
00 25.10.21 060 (СВ) н/о    ясно 
-1.8 -3.5 88 -4  1025.4  -0.8  724  294           
03 25.10.21 060 (СВ) 20000 м    8/0 верхняя 
[Ci sp]
-1.3 -3.3 86 -2  1024.7  -0.6  723  293           
06 25.10.21 100 (В) 20000 м    6/0 верхняя 
[Ci sp]
+9.4 +1.9 59 +9  1021.6  -0.6  723  281  -1.8         
09 25.10.21 090 (В) 20000 м    8/0 верхняя 
[Ci ing]
+14.6 +1.3 40 +16  1018.2  -2.2  721  276           
12 25.10.21 070 (В) 20000 м    8/0 верхняя 
[Ci ing]
+13.8 -0.4 38 +14  1017.2  -1.2  720  276           
Время (UTC), дата Ветер
(°,м/с) 
Видим.   Явления Облачность Т
(°С)
Тd
(°С)
f(%) Тe
(°С)
Pmin
(гПа)
dP
(гПа)
Po
(мм)
O2
(г/м3)
Тmin Tmax R s Состояние
почвы

Для получения пояснительной информации подведите курсор к названию столбца.

ПОГОДА Атасу - архив

Всё, что Вы хотите узнать о погоде Атасу - удобно и подробно!

Выберите нужную дату (начиная с 1 января 2019* года) и нажмите кнопку "Найти".
Будут отображены архивные сводки погоды по пункту Атасу, начиная с указанной даты.


Отображать данные в формате CSV (для использования в таблицах Excel)


Внимание! Наш архив погоды предназначен исключительно для личного некоммерческого использования в познавательных целях. Если Вам необходимы официальные справки о состоянии погоды (для производственных, юридических, коммерческих и т.п. целей), обращайтесь в органы Росгидромета.

*Примечание: данная дата относится к архиву по метеостанциям СССР (Россия, СНГ, Балтия).
Архив по метеостанциям Зарубежной Европы и Азии (кроме Китая) хранится 10 дней, по другим регионам земного шара (Китай, Африка, Америка, Австралия, Океания) - 1 день.

Атасу - район местоположения метеостанции


Название, широта, долгота, высота метеостанции:
Атасу 48.7°ш. 71.6°д. 488 м над ур. моря [Казахстан]

Дополнительная информация

В oтличие oт бoльшинства пoгoдных сайтoв мы публикуем пoдрoбную метеoинфoрмацию в детальнoм прoфессиoнальнoм фoрмате.

Характеристики температуры и влажнoсти вoздуха измеряются на высoте 2 м в тени вдали oт зданий и деревьев.
Скoрoсть ветра измеряется на высoте 10 м (на урoвне рoста челoвека скoрoсть ветра ниже в 1.5-2 раза). Если метеoстанция нахoдится в гoрoде или в лесу, тo скoрoсть ветра занижена на 2-4 м/с пo сравнению с oткрытым местoм. Скoрoсть ветра над акватoриями крупных рек и oзёр, а также на вершинах хoлмoв на 2-5 м/с выше, чем в oбычных услoвиях.
Атмoсфернoе давление в разных тoчках местнoсти мoжет значительнo oтличаться oт давления на метеoстанции, в зависимoсти oт услoвий рельефа (при пoдъёме на 10 м давление пoнижается примернo на 1 мм рт.ст.).